Terminal Aerodrome Forecast
Issued by NWS

Current Version | Previous Version | Graphics & Text | Print | Product List | Glossary On
Versions: 1 2 3 4 5 6 7 8 9 10 11 12 13 14 15 16 17
221
FTUS41 KILN 160541
TAFLCK
TAF
KLCK 160541Z 1606/1706 00000KT P6SM SCT090
     FM160800 00000KT 4SM BR SCT250
      TEMPO 1610/1612 1SM BR SCT015
     FM161300 12003KT P6SM SCT200
     FM161800 13005KT P6SM BKN050
     FM170300 12003KT P6SM SCT060 BKN150=

USA.gov is the U.S. government's official web portal to all federal, state and local government web resources and services.